Geneva, Switzerland

10:18 PM CEST on June 19, 2018 (GMT +0200)
Cointrin

Weather History for LSGG - September, 2017

Change the Weather History Date:

Thursday, September 14, 2017

  Actual Average Record
Temperature  
Mean Temperature 58 °F -  
Max Temperature 69 °F 63 °F 84 °F (2016)
Min Temperature 48 °F 45 °F 42 °F (1996)
Degree Days  
Heating Degree Days 6    
Growing Degree Days 8 (Base 50)    
Moisture  
Dew Point 48 °F    
Average Humidity 63    
Maximum Humidity 87    
Minimum Humidity 41    
Precipitation  
Precipitation 0.35 in 0.10 in - ()
Sea Level Pressure  
Sea Level Pressure 30.01 in    
Wind  
Wind Speed 17 mph ()    
Max Wind Speed 26 mph    
Max Gust Speed 37 mph    
Visibility 6.4 miles    
Events Rain    
Averages and records for this station are not official NWS values.
T = Trace of Precipitation, MM = Missing Value Source: Averaged Metar Reports

Daily Weather History Graph

Daily Weather History Graph

Search for Another Location

Airport or City:

Astronomy

Sep. 14, 2017 Rise Set
Actual Time 7:12 AM CEST 7:48 PM CEST
Civil Twilight 6:42 AM CEST 8:19 PM CEST
Nautical Twilight 6:06 AM CEST 8:54 PM CEST
Astronomical Twilight 5:28 AM CEST 9:32 PM CEST
Moon 12:39 AM CEST (9/14) 4:05 PM CEST (9/14)
Length of Visible Light 13h 36m
Length of Day
12h 36m
Last Quarter, 37% of the Moon is Illuminated
Sep 14
Last Quarter
Sep 20
New
Sep 28
First Quarter
Oct 5
Full
Oct 12
Last Quarter

Hourly Weather History & Observations

Time (CEST) Temp. Dew Point Humidity Pressure Visibility Wind Dir Wind Speed Gust Speed Precip Events Conditions
12:00 AM 69 °F 54 °F 50% 29.96 in - SW 23.0 mph - -  
12:20 AM 69.8 °F 53.6 °F 56% 30.01 in 6.2 mi SW 21.9 mph - N/A   Partly Cloudy
12:50 AM 69.8 °F 53.6 °F 56% 29.98 in 6.2 mi SW 20.7 mph 34.5 mph N/A   Partly Cloudy
1:00 AM 69 °F 54 °F 49% 29.94 in - SW 24.2 mph - -  
1:20 AM 69.8 °F 53.6 °F 56% 29.98 in 6.2 mi SW 26.5 mph - N/A   Partly Cloudy
1:50 AM 69.8 °F 53.6 °F 56% 29.98 in 6.2 mi SW 25.3 mph - N/A   Partly Cloudy
2:00 AM 69 °F 54 °F 49% 29.94 in - SW 26.5 mph - -  
2:20 AM 69.8 °F 53.6 °F 56% 29.98 in 6.2 mi SW 25.3 mph - N/A   Partly Cloudy
2:50 AM 69.8 °F 53.6 °F 56% 29.95 in 6.2 mi SW 26.5 mph - N/A   Partly Cloudy
3:00 AM 69 °F 54 °F 49% 29.91 in - SW 25.3 mph - -  
3:20 AM 69.8 °F 53.6 °F 56% 29.95 in 6.2 mi SW 24.2 mph - N/A   Partly Cloudy
3:50 AM 69.8 °F 53.6 °F 56% 29.95 in 6.2 mi SSW 24.2 mph - N/A   Partly Cloudy
4:00 AM 69 °F 54 °F 49% 29.89 in - SSW 21.9 mph - -  
4:20 AM 69.8 °F 53.6 °F 56% 29.92 in 6.2 mi SW 23.0 mph - N/A   Partly Cloudy
4:50 AM 68.0 °F 53.6 °F 60% 29.92 in 6.2 mi SW 25.3 mph 36.8 mph N/A   Mostly Cloudy
5:20 AM 68.0 °F 53.6 °F 60% 29.92 in 6.2 mi SW 19.6 mph - N/A   Partly Cloudy
5:50 AM 68.0 °F 53.6 °F 60% 29.92 in 6.2 mi SW 19.6 mph - N/A   Scattered Clouds
6:00 AM 67 °F 53 °F 52% 29.86 in - SW 19.6 mph - -  
6:20 AM 68.0 °F 53.6 °F 60% 29.89 in 6.2 mi SW 19.6 mph - N/A   Scattered Clouds
6:50 AM 68.0 °F 53.6 °F 60% 29.89 in 6.2 mi SW 16.1 mph - N/A   Scattered Clouds
7:00 AM 68 °F 53 °F 49% 29.84 in - SW 18.4 mph - -  
7:20 AM 68.0 °F 53.6 °F 60% 29.86 in 6.2 mi SW 17.3 mph - N/A   Mostly Cloudy
7:50 AM 68.0 °F 53.6 °F 60% 29.86 in 6.2 mi SW 17.3 mph - N/A   Scattered Clouds
8:00 AM 68 °F 53 °F 49% 29.82 in 44 mi SW 19.6 mph - -   Partly Cloudy
8:20 AM 69.8 °F 53.6 °F 56% 29.86 in 6.2 mi SW 23.0 mph - N/A   Scattered Clouds
8:50 AM 69.8 °F 53.6 °F 56% 29.83 in 6.2 mi SW 24.2 mph - N/A   Mostly Cloudy
9:00 AM 70 °F 53 °F 45% 29.80 in - SW 23.0 mph - -  
9:20 AM 69.8 °F 53.6 °F 56% 29.83 in 6.2 mi SW 23.0 mph 35.7 mph N/A   Mostly Cloudy
9:50 AM 64.4 °F 57.2 °F 77% 29.86 in 3.7 mi SW 24.2 mph 36.8 mph N/A Rain Rain Showers
10:00 AM 56 °F 50 °F 75% 29.90 in - WNW 18.4 mph - -  
10:20 AM 55.4 °F 48.2 °F 77% 29.92 in 6.2 mi WNW 15.0 mph 31.1 mph N/A Rain Light Rain Showers
10:50 AM 57.2 °F 46.4 °F 67% 29.95 in 6.2 mi West 13.8 mph 33.4 mph N/A   Mostly Cloudy
11:20 AM 57.2 °F 44.6 °F 63% 29.98 in 6.2 mi WNW 16.1 mph 33.4 mph N/A   Mostly Cloudy
11:50 AM 55.4 °F 41.0 °F 58% 30.01 in 6.2 mi SSW 9.2 mph - N/A   Mostly Cloudy
12:00 PM 57 °F 42 °F 45% 30.01 in - WSW 13.8 mph - -  
12:20 PM 55.4 °F 41.0 °F 58% 30.04 in 6.2 mi South 12.7 mph - N/A   Mostly Cloudy
12:50 PM 53.6 °F 42.8 °F 67% 30.06 in 6.2 mi South 21.9 mph - N/A Rain Light Rain Showers
1:00 PM 51 °F 46 °F 76% 30.09 in - SSW 20.7 mph - -  
1:20 PM 50.0 °F 44.6 °F 82% 30.09 in 3.7 mi SW 15.0 mph - N/A Rain Rain
1:50 PM 50.0 °F 44.6 °F 82% 30.09 in 6.2 mi SSW 16.1 mph - N/A Rain Light Rain
2:00 PM 49 °F 46 °F 83% 30.14 in 19 mi SSW 16.1 mph - - Rain Light Rain
2:20 PM 50.0 °F 46.4 °F 87% 30.12 in 6.2 mi SSW 11.5 mph - N/A   Mostly Cloudy
2:50 PM 51.8 °F 44.6 °F 76% 30.12 in 6.2 mi South 16.1 mph - N/A   Mostly Cloudy
3:00 PM 53 °F 44 °F 63% 30.14 in - South 11.5 mph - -  
3:20 PM 53.6 °F 42.8 °F 67% 30.12 in 6.2 mi SSW 10.4 mph - N/A   Mostly Cloudy
3:50 PM 55.4 °F 42.8 °F 63% 30.12 in 6.2 mi South 12.7 mph - N/A   Mostly Cloudy
4:00 PM 56 °F 43 °F 52% 30.14 in - SSW 12.7 mph - -  
4:20 PM 55.4 °F 42.8 °F 63% 30.12 in 6.2 mi SW 12.7 mph - N/A   Mostly Cloudy
4:50 PM 57.2 °F 44.6 °F 63% 30.12 in 6.2 mi WSW 8.1 mph - N/A   Scattered Clouds
5:00 PM 59 °F 42 °F 43% 30.12 in 31 mi SSW 13.8 mph - -   Partly Cloudy
5:20 PM 59.0 °F 42.8 °F 55% 30.12 in 6.2 mi SW 10.4 mph - N/A   Scattered Clouds
5:50 PM 59.0 °F 41.0 °F 51% 30.09 in 6.2 mi WSW 11.5 mph - N/A   Scattered Clouds
6:00 PM 58 °F 41 °F 41% 30.10 in - WSW 9.2 mph - -  
6:20 PM 55.4 °F 42.8 °F 63% 30.09 in 6.2 mi West 6.9 mph - N/A   Scattered Clouds
6:50 PM 55.4 °F 46.4 °F 72% 30.09 in 6.2 mi West 5.8 mph - N/A   Scattered Clouds
7:00 PM 54 °F 46 °F 67% 30.11 in - West 5.8 mph - -  
7:20 PM 53.6 °F 46.4 °F 77% 30.09 in 6.2 mi West 5.8 mph - N/A   Scattered Clouds
7:50 PM 53.6 °F 46.4 °F 77% 30.09 in 6.2 mi West 6.9 mph - N/A   Scattered Clouds
8:00 PM 53 °F 45 °F 67% 30.12 in 31 mi West 4.6 mph - -   Mostly Cloudy
8:20 PM 53.6 °F 46.4 °F 77% 30.12 in 6.2 mi Variable 3.5 mph - N/A   Scattered Clouds
8:50 PM 51.8 °F 44.6 °F 76% 30.12 in 6.2 mi Variable 1.2 mph - N/A   Scattered Clouds
9:00 PM 52 °F 46 °F 72% 30.15 in - West 2.3 mph - -  
9:20 PM 51.8 °F 46.4 °F 82% 30.12 in 6.2 mi Variable 2.3 mph - N/A   Scattered Clouds
9:50 PM 51.8 °F 44.6 °F 76% 30.12 in 6.2 mi WSW 4.6 mph - N/A   Mostly Cloudy
10:00 PM 53 °F 45 °F 67% 30.15 in - WSW 4.6 mph - -  
10:20 PM 55.4 °F 37.4 °F 51% 30.12 in 6.2 mi WNW 4.6 mph - N/A Rain Light Rain Showers
10:50 PM 50.0 °F 46.4 °F 87% 30.12 in 6.2 mi WNW 3.5 mph - N/A   Mostly Cloudy
11:00 PM 51 °F 44 °F 68% 30.14 in 31 mi ENE 4.6 mph - - Rain Light Rain Showers
11:20 PM 48.2 °F 44.6 °F 87% 30.12 in 6.2 mi Variable 2.3 mph - N/A   Partly Cloudy
11:50 PM 48.2 °F 44.6 °F 87% 30.12 in 6.2 mi Variable 2.3 mph - N/A   Partly Cloudy